Back to catalog

STARLINK-5821

AliveCommunicationsVLEO
NORAD 57069·PAYLOAD·🇺🇸 United States

Launched Jun 22, 2023 from Vandenberg Space Force Base

Loading…

Next Passes (next 24 hours)

TLE

FreshSource: CelesTrak SupGP

Epoch: Sep 14, 2026, 15:04 UTC

1 57069C 23088X   26257.62826389  .00004615  00000+0  16720-3 0  2575
2 57069  43.0023 109.5136 0001361 259.8068  13.7797 15.27571293    12

Track STARLINK-5821 in real time with AllMySat

Download on the App Store